Вернуться в каталог

LYRA-4

АктивенНаукаPO
NORAD 64691·PAYLOAD·🇦🇺 Australia

Запущен Jun 28, 2025 с Rocket Lab Launch Complex 1

Loading…

Ближайшие Пролёты (ближайшие 24 часа)

TLE

СвежийSource: Space-Track

Эпоха: Sep 14, 2026, 05:33 UTC

1 64691U 25140A   26257.23184202  .00000997  00000-0  16093-3 0  9999
2 64691  96.0100 354.5247 0010646 267.4098  92.5896 14.72684455 65160

Отслеживайте LYRA-4 в реальном времени с AllMySat

Download on the App Store